Location: Maccacari
(45.1333°N, 11.1333°E)
Time: 08:39:41
(UTC+00:00)

Lacrosse 4 Rocket - Pass Details

Date: 18 September 2020
Orbit: 543 x 615 km, 68.0° (Epoch: 29 October)

Event Time Altitude Azimuth Distance (km) Brightness Sun altitude
Rises 20:59:33 0° 335° (NNW) 2,716 5.8 -35.3°
Reaches altitude 10° 21:01:50 10° 343° (NNW) 1,823 4.6 -35.5°
Enters shadow 21:02:08 12° 344° (NNW) 1,714 4.5 -35.6°
